COSMOS 1275 DEB, 13803

Orbit data source: Space-Track

COSMOS 1275 DEB, 13803 is space debris in LEO originally from a launch on Thu, 04 Jun 1981 UTC launched from the Plesetsk Missile And Space Complex (PKMTR). Debris objects in space refer to the collection of defunct objects orbiting the Earth. Examples of debris include non-operational satellites, rocket bodies, and fragments generated from explosions, collisions, or faulty payload assembly.

Loading next visibility...
Identifier
13803, 1981-053GX
Orbit
LEO
Country
Flag of CISCIS
Related business
Manufacturer
Unknown
Mission
Spacecraft
Bus & Motor
Unknown
Mass
Unknown
Launch date (UTC)
1981-06-04 (45 years ago)
Launch vehicle
Unknown
Launch site
Plesetsk Missile And Space Complex (PKMTR)
Object type
Payload
Rocket body
Debris
Shape & HBR
Unknown shape, 0.1 m
Radar Cross Section
Small (<0.1 m²)

Expand to show TLE details & history
Last TLE update: 1 day ago

TLE from 1 day ago
0 COSMOS 1275 DEB
1 13803U 81053GX  26118.54220306  .00000817  00000-0  43354-3 0  9990
2 13803  82.8150 157.9160 0045061  46.8855 105.8519 14.11980708205861
Epoch: 2026-04-28T13:00Z
TLE epoch observation values (Epoch: 2026-04-28T13:00:46.344Z)
Latitude
26.57568°
Longitude
-77.38958°
Altitude
864.908 km
Speed
7.418 km/s
True Right ascension
22h 17m 16s
True Declination
26° 26' 25"
Sunlit
Object was in daylight at epoch
Visualization orbit readout
Latitude
Unknown
Longitude
Unknown
Altitude
Unknown
Speed
Unknown
Apparent Right ascension
Unknown
Apparent Declination
Unknown
Sunlit
N/A
Visualization observer readout
Local Sidereal Time
20:53:08
Azimuth
Unknown
Elevation
Unknown
Doppler factor
Unknown
Orbital elements
Apogee altitude
882.274 km
Perigee altitude
817.135 km
Semi-major axis
7,227.841 km
Eccentricity
0.00451
Inclination
82.815°
RAAN
157.916°
Arg. of periapsis
46.8855°
True anomaly
106.34786°
Mean anomaly
105.8519°
Eccentric anomaly
106.09995°
Mean motion
3.53208 °/min
Orbital period
101.92 mins
BSTAR
0.00043354
Loading maneuver chart data...
Computing Atmospheric mass density...

Documentation

Showing up to 5 results
|